Location: Unspecified
(0.0000°N, 0.0000°E)
Time: 00:03:44
(UTC+01:00)

HO-68 - Visible Passes

Search period start: 19 December 2014 00:00
Search period end: 29 December 2014 00:00
Orbit: 1193 x 1205 km, 100.2° (Epoch: 18 December)

Date Brightness Start Highest point End Pass type
(mag) Time Alt. Az. Time Alt. Az. Time Alt. Az.
19 Dec ? 21:44:36 10° S 21:48:03 32° S 21:48:03 32° S visible
20 Dec ? 21:27:47 10° SSE 21:30:58 29° SSE 21:30:58 29° SSE visible
21 Dec ? 21:11:11 10° SSE 21:13:52 24° SE 21:13:52 24° SE visible
21 Dec ? 23:01:13 10° SW 23:03:20 15° SW 23:03:20 15° SW visible
22 Dec ? 20:54:49 10° SE 20:56:47 19° SE 20:56:47 19° SE visible
22 Dec ? 22:43:05 10° SSW 22:46:14 21° SW 22:46:14 21° SW visible
23 Dec ? 20:38:46 10° SE 20:39:41 13° ESE 20:39:41 13° ESE visible
23 Dec ? 22:25:26 10° SSW 22:29:08 27° SW 22:29:08 27° SW visible
24 Dec ? 22:08:06 10° S 22:12:02 33° SSW 22:12:02 33° SSW visible
25 Dec ? 21:50:59 10° S 21:54:56 36° S 21:54:56 36° S visible
26 Dec ? 21:34:05 10° SSE 21:37:50 35° SSE 21:37:50 35° SSE visible
27 Dec ? 21:17:23 10° SSE 21:20:44 30° SE 21:20:44 30° SE visible
27 Dec ? 23:08:21 10° SW 23:10:11 13° WSW 23:10:11 13° WSW visible
28 Dec ? 21:00:55 10° SE 21:03:37 23° SE 21:03:37 23° SE visible
28 Dec ? 22:49:52 10° SSW 22:53:04 19° SW 22:53:04 19° SW visible
